Location: Arboyeti
(42.1122°N, 44.6017°E)
Time: 21:02:16
(UTC+00:00)

IDEFIX/ARIANE 42P - Pass Details

Date: 19 April 2021
Orbit: 785 x 802 km, 98.4° (Epoch: 17 May)

Event Time Altitude Azimuth Distance (km) Brightness Sun altitude
Rises 22:58:20 0° 24° (NNE) 3,296 6.9 -30.0°
Reaches altitude 10° 23:00:58 10° 35° (NE) 2,365 6.0 -29.7°
Maximum altitude 23:05:29 29° 95° (E) 1,417 4.1 -29.2°
Enters shadow 23:06:37 27° 118° (ESE) 1,493 4.0 -29.1°
